OpenBCM V1.08-5-g2f4a (Linux)

Packet Radio Mailbox

IZ3LSV

[San Dona' di P. JN]

 Login: GUEST





  
I0OJJ  > KEPS     04.10.25 02:25l 313 Lines 14849 Bytes #170 (0) @ AMSAT
BID : ORB25277.1
Read: GUEST
Subj: 2Line Orbital Elements 25277.AMSAT
Path: IZ3LSV<IK6IHL<IK7NXU<HB9ON<DK0WUE<PD0LPM<IR0AAB<I0OJJ
Sent: 251004/0021z @:I0OJJ.ITA.EU [Rome] obcm1.08-11-2-gbfe9
From: I0OJJ @ I0OJJ.ITA.EU (Gustavo)
To:   KEPS @ AMSAT
X-Info: This message was generated automatically


QST de W1STR

AMSAT Orbital Elements for Amateur Satellites in TLE Format
From Orbital Analysis Office
New England Sci-Tech STEM Education Center
Natick MA October 04, 2025
To all radio amateurs


These element sets describe the orbits of various satellites 
in use by the amateur radio community. For details see:
www.amsat.org/keplerian-elements-formats/

A daily update of element sets is available at:
www.amsat.org/tle/daily-bulletin.txt
or without bulletin text:
www.amsat.org/tle/dailytle.txt


AO-07
1 07530U 74089B   25276.53867819 -.00000017  00000-0  18496-3 0  9992
2 07530 101.9989 282.0557 0011902 261.1228 276.7811 12.53692092328350
UO-11
1 14781U 84021B   25276.47978611  .00003276  00000-0  34719-3 0  9996
2 14781  97.7686 240.6615 0006655 324.4645  35.6129 14.89781984218893
AO-27
1 22825U 93061C   25276.44136679  .00000369  00000-0  15773-3 0  9994
2 22825  98.7247 338.5076 0009283 129.2243 230.9765 14.30839413670286
FO-29
1 24278U 96046B   25276.60974411  .00000052  00000-0  87477-4 0  9996
2 24278  98.5550 155.1346 0350674  42.0462 320.7031 13.53255926438467
NOAA-15
1 25338U 98030A   25276.57442507  .00000428  00000-0  19353-3 0  9995
2 25338  98.5303 298.8883 0010695  25.7445 334.4266 14.27029002424695
GO-32
1 25397U 98043D   25276.46049438  .00000290  00000-0  14555-3 0  9994
2 25397  98.9846 258.0715 0000683 177.2192 182.8990 14.24347591414787
ISS
1 25544U 98067A   25276.49892031  .00013095  00000-0  23997-3 0  9999
2 25544  51.6325 130.2428 0001007 193.4972 166.5990 15.49648180531963
NO-44
1 26931U 01043C   25276.18589858  .00000595  00000-0  25333-3 0  9991
2 26931  67.0510 188.9244 0007061 274.1858  85.8437 14.31796759253655
SO-50
1 27607U 02058C   25276.23082636  .00004665  00000-0  58110-3 0  9998
2 27607  64.5535 203.4525 0067544 309.9404  49.5779 14.82021927226364
CO-55
1 27844U 03031E   25276.47266659  .00000922  00000-0  41986-3 0  9993
2 27844  98.6791 283.2720 0009045 205.0782 154.9959 14.24092793155131
CO-57
1 27848U 03031J   25276.47566108  .00000785  00000-0  36497-3 0  9997
2 27848  98.6820 283.1922 0008631 224.0742 135.9750 14.23413812154852
RS-22
1 27939U 03042A   25276.60347323  .00003030  00000-0  48312-3 0  9996
2 27939  98.3372  88.9551 0011520   8.3162  79.4914 14.72672773177778
CO-58
1 28895U 05043F   25276.34371006  .00004795  00000-0  78044-3 0  9991
2 28895  98.2655  62.2790 0013413 302.4609  57.5299 14.71467258 63967
CO-65
1 32785U 08021C   25276.62679317  .00011209  00000-0  77673-3 0  9995
2 32785  97.7976 248.8228 0009828 168.1468 191.9991 15.05768745946531
CO-66
1 32791U 08021J   25276.43271165  .00035947  00000-0  15714-2 0  9992
2 32791  97.7389 259.3578 0006067 113.0309 247.1567 15.21979145948098
RS-30
1 32953U 08025A   25276.61362804  .00000040  00000-0  21862-3 0  9995
2 32953  82.5046 155.0394 0019279 149.2755 210.9458 12.43168821787813
NOAA-19
1 33591U 09005A   25276.58413810  .00000175  00000-0  11686-3 0  9995
2 33591  98.9860 341.8782 0014333  39.8220 320.4001 14.13414645858233
SRMSAT
1 37841U 11058D   25276.13156694  .00000618  00000-0  19201-3 0  9996
2 37841  19.9710 175.2777 0011679 255.4782 255.8106 14.11474811721453
ZACUBE-1
1 39417U 13066B   25276.61228080  .00012727  00000-0  10640-2 0  9991
2 39417  97.7912 233.1611 0043588  26.3960 333.9469 14.97887321642270
Delfi-N3xt
1 39428U 13066N   25276.34416849  .00022046  00000-0  21383-2 0  9996
2 39428  97.8288 192.7699 0081426 340.4468  19.3631 14.90174215636308
GOMX-1
1 39430U 13066Q   25276.57658550  .00004811  00000-0  74185-3 0  9990
2 39430  97.6694 128.0841 0131189 180.3784 179.7344 14.68139394632240
LO-74
1 39440U 13066AA  25276.56113779  .00007510  00000-0  73970-3 0  9999
2 39440  97.8578 220.4301 0061505 155.5021 204.9142 14.90914615638711
AO-73
1 39444U 13066AE  25276.45002918  .00021593  00000-0  15281-2 0  9990
2 39444  97.7947 238.9978 0040288 358.1026   2.0040 15.04197588640994
DTUSAT-2
1 40030U 14033W   25276.40235206  .00018625  00000-0  11457-2 0  9994
2 40030  98.0686 254.0274 0010198  41.1609 319.0387 15.10045306613860
EO-80
1 40032U 14033Y   25276.41640632  .00019126  00000-0  11741-2 0  9993
2 40032  98.0562 253.5352 0007319 344.4915  15.6088 15.10135297613840
LILACSAT-2
1 40908U 15049K   25276.58029221  .00023792  00000-0  55995-3 0  9990
2 40908  97.5014 299.9155 0010641 102.3431 257.9008 15.41903924556088
IO-86
1 40931U 15052B   25151.18580175  .00001241  00000-0  78118-4 0  9996
2 40931   6.0006  24.0987 0012733 338.8432  21.1169 14.78805930523159
Horyu-4
1 41340U 16012D   25276.60229842  .00061774  00000-0  13362-2 0  9999
2 41340  30.9953  68.7149 0004097 187.5638 172.4948 15.43180279530683
Lapan A3
1 41603U 16040E   25276.63658347  .00007617  00000-0  25831-3 0  9992
2 41603  97.1425 276.7812 0009800 204.6629 155.4145 15.30761252515539
CAS-2T
1 41847U 16066G   25276.22186271  .00004377  00000-0  62651-3 0  9998
2 41847  98.4111 349.6475 0344850 188.3536 171.1823 14.43819157467706
CAS-4B
1 42759U 17034B   25276.54071939  .00731309  24499-3  14614-2 0  9994
2 42759  42.9976 339.7885 0019813  34.5240 325.6920 15.98594613460872
CAS-4A
1 42761U 17034D   25276.57897640  .01161216  78670-3  13742-2 0  9991
2 42761  42.9988 334.1267 0017678  39.9448 320.2730 16.07465285460926
TechnoSat
1 42829U 17042E   25276.42447598  .00008171  00000-0  61645-3 0  9996
2 42829  97.3976  79.7221 0017316 250.0755 109.8606 15.02563425448119
AO-91
1 43017U 17073E   25276.09925854  .00016239  00000-0  79023-3 0  9992
2 43017  97.5069 143.9815 0168120 132.0035 229.5650 15.06800369426599
S-Net D
1 43186U 18014G   25276.28654443  .00014114  00000-0  79931-3 0  9997
2 43186  97.5486 178.0110 0008757 174.5602 185.5726 15.13102294419863
S-Net B
1 43187U 18014H   25276.29350161  .00013392  00000-0  75900-3 0  9998
2 43187  97.5492 177.9951 0009612 170.5014 189.6400 15.13078910419867
S-Net A
1 43188U 18014J   25276.48491452  .00012238  00000-0  69346-3 0  9994
2 43188  97.5501 178.3506 0009462 170.5138 189.6274 15.13109327419899
S-Net C
1 43189U 18014K   25276.49459934  .00011501  00000-0  65233-3 0  9998
2 43189  97.5516 178.3941 0011211 164.8522 195.3047 15.13075033418445
Ten-Koh
1 43677U 18084G   25276.47061536  .00006095  00000-0  47987-3 0  9990
2 43677  98.0761  93.3213 0007500 225.6973 134.3636 15.01180715377627
PO-101
1 43678U 18084H   25276.63726983  .00005324  00000-0  44539-3 0  9997
2 43678  98.1062  97.2812 0007650 255.1405 104.8969 14.98905891377766
QO-100
1 43700U 18090A   25276.57379994  .00000145  00000-0  00000-0 0  9997
2 43700   0.0182 223.4655 0001425 355.1932  26.2653  1.00269280 25104
MinXSS-2
1 43758U 18099A   25276.61287742  .00038844  00000-0  13331-2 0  9993
2 43758  97.4904 343.2398 0011876 107.1888 253.0654 15.29976061374689
AO-95
1 43770U 18099N   25276.12257209  .00021237  00000-0  99822-3 0  9996
2 43770  97.4791 333.0096 0010709 163.2544 196.9046 15.19563778374085
SNUSat 2
1 43782U 18099AA  25276.62429650  .00016804  00000-0  86310-3 0  9997
2 43782  97.4479 329.2804 0013114 110.4017 249.8626 15.16490843374077
SnugLite
1 43784U 18099AC  25276.06105390  .00020352  00000-0  94803-3 0  9998
2 43784  97.4288 328.5534 0004920 109.4016 250.7751 15.19924418374164
ITASat 1
1 43786U 18099AE  25276.10563211  .00014884  00000-0  80816-3 0  9997
2 43786  97.4444 327.9246 0014475 161.3755 198.8010 15.14533648373936
EAGLET 1
1 43790U 18099AJ  25276.42378183  .00011611  00000-0  71413-3 0  9997
2 43790  97.4645 327.7753 0012685 146.1775 214.0266 15.10123767373543
ESEO
1 43792U 18099AL  25276.59086021  .00004301  00000-0  32253-3 0  9991
2 43792  97.4378 319.6108 0014054 124.5676 235.6878 15.03087378373248
JO-97
1 43803U 18099AX  25276.62021619  .00026026  00000-0  10788-2 0  9996
2 43803  97.4546 334.7833 0008498  99.7742 260.4456 15.23837611374427
Suomi 100
1 43804U 18099AY  25276.44208883  .00025176  00000-0  11374-2 0  9994
2 43804  97.4605 333.5375 0013194 103.8782 256.3922 15.20868501374298
ISAT
1 43879U 18111D   25276.29499950  .00065887  00000-0  19036-2 0  9997
2 43879  97.5871 193.5624 0010031 132.8350 227.3737 15.35362205371416
UWE-4
1 43880U 18111E   25276.29200798  .00044101  00000-0  15131-2 0  9997
2 43880  97.5819 191.1343 0012112 150.0761 210.1174 15.29952380371295
Sparrow
1 43881U 18111F   25276.36793445  .00068983  00000-0  18904-2 0  9997
2 43881  97.6038 197.0087 0006943 156.1048 204.0519 15.37027007371530
Prox-1
1 44339U 19036A   25276.56999508  .00020925  00000-0  25009-2 0  9991
2 44339  23.9975  18.5588 0006397 324.7896  35.2179 14.82637575335230
Taurus 1
1 44530U 19059C   25276.64938351  .00015512  00000-0  27383-2 0  9990
2 44530  98.6188  61.7509 0009019  37.2707 322.9120 14.67519661320955
Duchifat 3
1 44854U 19089C   25276.54110309  .00172256  00000-0  18880-2 0  9997
2 44854  36.9380 331.6409 0006344 148.6624 211.4516 15.61750642321047
TO-108
1 44881U 19093C   25276.60276660  .00002510  00000-0  29391-3 0  9997
2 44881  97.7835 349.7864 0013088 205.1926 154.8652 14.85861174313308
FloripaSat 1
1 44885U 19093G   25276.62698273  .00012963  00000-0  10477-2 0  9998
2 44885  97.8118   4.5417 0010015 183.4769 176.6386 14.99898004314132
RS-44
1 44909U 19096E   25276.57425217  .00000035  00000-0  95610-4 0  9999
2 44909  82.5223 150.2365 0218090  24.6131 336.5192 12.79744128269527
UPMSat 2
1 46276U 20061E   25276.21066345  .01054167  64955-3  12731-2 0  9995
2 46276  97.2274 356.3532 0005661 254.7650 105.3007 16.08358446283725
SALSAT
1 46495U 20068K   25276.60624409  .00014598  00000-0  59341-3 0  9999
2 46495  97.8729 260.2080 0012992 115.0254 245.2333 15.24588549276199
